This is the latest recevied weather packets stored in our database for station/object K7CTM. If no packets are shown the sender has not sent any weather packets the latest 10 day(s).
| Time | Temp. | Humidity | Pressure | Rain* | Wind** | Luminosity | Snow |
|---|---|---|---|---|---|---|---|
| 1777942395 | 11.11° C | 43% | 1023.7 hPa | 0 mm | - | 71 W/m² | - |
| 1777942092 | 11.11° C | 44% | 1023.7 hPa | 0 mm | - | 88 W/m² | - |
| 1777941788 | 11.11° C | 44% | 1023.9 hPa | 0 mm | - | 88 W/m² | - |
| 1777941486 | 11.11° C | 43% | 1023.8 hPa | 0 mm | - | 94 W/m² | - |
| 1777941183 | 11.67° C | 44% | 1023.7 hPa | 0 mm | - | 103 W/m² | - |
| 1777940879 | 11.67° C | 43% | 1023.6 hPa | 0 mm | - | 120 W/m² | - |
| 1777940576 | 11.11° C | 43% | 1023.7 hPa | 0 mm | - | 150 W/m² | - |
| 1777940274 | 11.11° C | 44% | 1023.9 hPa | 0 mm | - | 126 W/m² | - |
| 1777939971 | 11.11° C | 45% | 1023.7 hPa | 0 mm | - | 113 W/m² | - |
| 1777939668 | 11.11° C | 44% | 1023.9 hPa | 0 mm | - | 116 W/m² | - |
| 1777939366 | 10.56° C | 43% | 1023.7 hPa | 0 mm | - | 123 W/m² | - |
| 1777939062 | 10.56° C | 43% | 1023.8 hPa | 0 mm | - | 120 W/m² | - |
| 1777938759 | 10.56° C | 44% | 1023.7 hPa | 0 mm | - | 101 W/m² | - |
| 1777938456 | 10.56° C | 44% | 1023.9 hPa | 0 mm | - | 81 W/m² | - |
| 1777938153 | 10.56° C | 44% | 1023.9 hPa | 0 mm | - | 68 W/m² | - |
| 1777937849 | 10.56° C | 44% | 1023.9 hPa | 0 mm | - | 73 W/m² | - |
| 1777937545 | 10.56° C | 44% | 1023.7 hPa | 0 mm | - | 72 W/m² | - |
| 1777937243 | 10.56° C | 44% | 1023.8 hPa | 0 mm | - | 76 W/m² | - |
| 1777936939 | 10.56° C | 47% | 1023.7 hPa | 0 mm | - | 73 W/m² | - |
| 1777936636 | 10.56° C | 43% | 1023.8 hPa | 0 mm | - | 79 W/m² | - |
| 1777936333 | 10.56° C | 46% | 1023.8 hPa | 0 mm | - | 86 W/m² | - |
| 1777936029 | 10.56° C | 43% | 1023.8 hPa | 0 mm | - | 85 W/m² | - |
| 1777935728 | 10.56° C | 43% | 1023.8 hPa | 0 mm | - | 91 W/m² | - |
| 1777935426 | 10.56° C | 43% | 1023.9 hPa | 0 mm | - | 103 W/m² | - |
| 1777935121 | 10° C | 43% | 1023.9 hPa | 0 mm | - | 92 W/m² | - |
* Rain latest hour (hover to see other rain measurements)
** Current wind speed in m/s (hover to see current wind gust speed)